QPF
0.00 0.00 0.02 0.03 0.05 0.05 0.03 0.02 0.01 0.01 0.01 0.01 0.01 0.01 0.00 0.00 0.00 0.00 0.00 0.00 0.00 0.00 0.00 0.00 0.00 0.00 0.00 0.00 0.00 0.00 0.00 0.00 0.00 0.00 0.00 0.00 0.00 0.00 0.00 0.00 0.00 0.00 0.00 0.00
0.00 0.00 0.01 0.02 0.06 0.05 0.02 0.01 0.00 0.00 0.00 0.00 0.00 0.00 0.00 0.00 0.00 0.00 0.00 0.00 0.00 0.00 0.00 0.00 0.00 0.00 0.00 0.00 0.00 0.00 0.00 0.00 0.00 0.00 0.00 0.00 0.00 0.00 0.01 0.01 0.01 0.01 0.01 0.01
0.00 0.00 0.00 0.02 0.04 0.02 0.00 0.00 0.00 0.00 0.00 0.00 0.00 0.00 0.00 0.00 0.00 0.00 0.00 0.00 0.00 0.00 0.00 0.00 0.00 0.00 0.00 0.00 0.00 0.00 0.00 0.00 0.00 0.00 0.00 0.00 0.00 0.01 0.01 0.01 0.01 0.01 0.01 0.01
0.00 0.00 0.02 0.01 0.00 0.00 0.00 0.00 0.00 0.00 0.00 0.00 0.00 0.00 0.00 0.00 0.00 0.00 0.00 0.00 0.00 0.00 0.00 0.00 0.00 0.00 0.00 0.00 0.00 0.00 0.00 0.00 0.00 0.00 0.00 0.00 0.01 0.01 0.01 0.01 0.01 0.01 0.01 0.01
0.00 0.00 0.01 0.01 0.00 0.00 0.00 0.00 0.00 0.00 0.00 0.00 0.00 0.00 0.00 0.00 0.00 0.00 0.00 0.00 0.00 0.00 0.00 0.00 0.00 0.00 0.00 0.00 0.00 0.00 0.00 0.00 0.01 0.01 0.01 0.01 0.01 0.01 0.01 0.01 0.01 0.01 0.01 0.01
0.00 0.00 0.00 0.00 0.00 0.00 0.00 0.00 0.00 0.00 0.00 0.00 0.00 0.00 0.00 0.00 0.00 0.00 0.00 0.00 0.00 0.00 0.00 0.00 0.00 0.00 0.00 0.01 0.01 0.01 0.01 0.02 0.02 0.02 0.02 0.01 0.01 0.01 0.01 0.01 0.01 0.01 0.01 0.01
0.00 0.00 0.00 0.00 0.00 0.00 0.00 0.00 0.00 0.00 0.00 0.00 0.00 0.00 0.00 0.00 0.00 0.00 0.00 0.00 0.00 0.00 0.00 0.00 0.00 0.01 0.02 0.02 0.02 0.02 0.02 0.02 0.02 0.02 0.02 0.01 0.01 0.01 0.01 0.01 0.01 0.01 0.01 0.01
0.00 0.00 0.00 0.00 0.00 0.00 0.00 0.00 0.00 0.00 0.00 0.00 0.00 0.00 0.00 0.00 0.00 0.00 0.00 0.00 0.00 0.00 0.00 0.00 0.01 0.02 0.02 0.02 0.02 0.02 0.02 0.02 0.02 0.02 0.02 0.01 0.02 0.02 0.02 0.02 0.01 0.01 0.01 0.01
0.00 0.00 0.00 0.00 0.00 0.00 0.00 0.00 0.00 0.00 0.00 0.00 0.00 0.00 0.00 0.00 0.00 0.00 0.00 0.00 0.00 0.00 0.01 0.01 0.01 0.01 0.02 0.02 0.02 0.02 0.03 0.02 0.02 0.02 0.02 0.02 0.03 0.02 0.02 0.02 0.01 0.01 0.01 0.02
0.00 0.00 0.00 0.00 0.00 0.00 0.00 0.00 0.00 0.00 0.00 0.00 0.00 0.00 0.00 0.00 0.00 0.00 0.00 0.00 0.00 0.01 0.01 0.01 0.01 0.01 0.02 0.02 0.03 0.04 0.04 0.03 0.02 0.03 0.03 0.03 0.03 0.04 0.03 0.02 0.02 0.02 0.02 0.03
0.00 0.00 0.00 0.00 0.00 0.00 0.00 0.00 0.00 0.00 0.00 0.00 0.00 0.00 0.00 0.00 0.00 0.00 0.00 0.00 0.01 0.02 0.02 0.02 0.02 0.02 0.02 0.03 0.05 0.06 0.05 0.04 0.04 0.04 0.04 0.04 0.04 0.04 0.04 0.03 0.03 0.02 0.02 0.03
0.00 0.00 0.00 0.00 0.00 0.00 0.00 0.00 0.00 0.00 0.00 0.00 0.00 0.00 0.00 0.00 0.00 0.00 0.01 0.01 0.02 0.03 0.03 0.03 0.03 0.03 0.03 0.04 0.06 0.06 0.06 0.05 0.05 0.05 0.05 0.05 0.05 0.04 0.03 0.02 0.01 0.01 0.01 0.02
0.00 0.00 0.00 0.00 0.00 0.00 0.00 0.00 0.00 0.00 0.00 0.00 0.00 0.00 0.00 0.00 0.00 0.01 0.01 0.03 0.04 0.04 0.04 0.04 0.04 0.04 0.04 0.05 0.06 0.07 0.06 0.05 0.04 0.04 0.04 0.05 0.06 0.05 0.04 0.02 0.01 0.01 0.01 0.01
0.00 0.00 0.00 0.00 0.00 0.00 0.00 0.00 0.00 0.00 0.00 0.00 0.00 0.00 0.00 0.00 0.00 0.01 0.02 0.04 0.04 0.04 0.04 0.04 0.05 0.05 0.06 0.06 0.06 0.06 0.06 0.06 0.04 0.03 0.03 0.04 0.05 0.06 0.05 0.04 0.02 0.01 0.01 0.01
0.00 0.00 0.00 0.00 0.00 0.00 0.00 0.00 0.00 0.00 0.00 0.00 0.00 0.00 0.00 0.00 0.01 0.01 0.02 0.03 0.04 0.04 0.04 0.05 0.06 0.07 0.08 0.08 0.06 0.06 0.06 0.05 0.04 0.04 0.04 0.05 0.05 0.05 0.05 0.04 0.04 0.02 0.00 0.00
0.00 0.00 0.00 0.00 0.00 0.00 0.00 0.00 0.00 0.00 0.00 0.00 0.00 0.00 0.00 0.00 0.01 0.01 0.02 0.03 0.04 0.04 0.05 0.07 0.08 0.10 0.10 0.08 0.06 0.06 0.06 0.07 0.05 0.04 0.05 0.05 0.05 0.04 0.04 0.04 0.04 0.02 0.01 0.00
0.00 0.00 0.00 0.00 0.00 0.00 0.00 0.00 0.00 0.00 0.00 0.00 0.00 0.00 0.00 0.00 0.01 0.01 0.02 0.02 0.02 0.04 0.05 0.07 0.09 0.11 0.11 0.09 0.06 0.06 0.07 0.07 0.06 0.04 0.04 0.04 0.04 0.04 0.04 0.04 0.04 0.03 0.01 0.01
0.00 0.00 0.00 0.00 0.00 0.00 0.00 0.00 0.00 0.00 0.00 0.00 0.00 0.00 0.00 0.00 0.01 0.01 0.02 0.02 0.03 0.03 0.04 0.06 0.08 0.10 0.11 0.09 0.07 0.07 0.07 0.09 0.09 0.06 0.03 0.03 0.03 0.03 0.03 0.03 0.03 0.02 0.01 0.01
0.00 0.00 0.00 0.00 0.00 0.00 0.00 0.00 0.00 0.00 0.00 0.00 0.00 0.00 0.00 0.00 0.00 0.01 0.01 0.03 0.05 0.06 0.05 0.05 0.08 0.09 0.11 0.10 0.08 0.07 0.08 0.10 0.10 0.07 0.06 0.04 0.03 0.02 0.02 0.03 0.02 0.01 0.01 0.01
0.00 0.00 0.00 0.00 0.00 0.00 0.00 0.00 0.00 0.00 0.00 0.00 0.00 0.00 0.00 0.00 0.00 0.01 0.01 0.03 0.05 0.06 0.06 0.06 0.06 0.07 0.09 0.08 0.08 0.07 0.07 0.07 0.06 0.06 0.05 0.04 0.03 0.02 0.02 0.02 0.01 0.01 0.01 0.01
0.00 0.00 0.00 0.00 0.00 0.00 0.00 0.00 0.00 0.00 0.00 0.00 0.00 0.00 0.00 0.00 0.00 0.01 0.02 0.03 0.03 0.04 0.05 0.08 0.07 0.07 0.07 0.07 0.07 0.06 0.06 0.04 0.03 0.03 0.03 0.02 0.02 0.01 0.01 0.01 0.01 0.01 0.01 0.00
0.00 0.00 0.00 0.00 0.00 0.00 0.00 0.00 0.00 0.00 0.00 0.00 0.00 0.00 0.00 0.00 0.00 0.01 0.01 0.02 0.03 0.05 0.05 0.06 0.06 0.06 0.05 0.05 0.04 0.04 0.04 0.03 0.02 0.02 0.02 0.02 0.02 0.01 0.01 0.01 0.00 0.00 0.00 0.00
0.00 0.00 0.00 0.00 0.00 0.00 0.00 0.00 0.00 0.00 0.00 0.00 0.00 0.00 0.00 0.00 0.00 0.01 0.01 0.01 0.02 0.04 0.03 0.04 0.05 0.05 0.04 0.03 0.03 0.03 0.03 0.02 0.01 0.01 0.01 0.01 0.01 0.01 0.01 0.00 0.00 0.00 0.00 0.00
0.00 0.00 0.00 0.00 0.00 0.00 0.00 0.00 0.00 0.00 0.00 0.00 0.00 0.00 0.00 0.00 0.00 0.00 0.01 0.02 0.02 0.03 0.02 0.03 0.04 0.04 0.04 0.04 0.05 0.04 0.03 0.02 0.01 0.01 0.01 0.01 0.01 0.01 0.01 0.00 0.00 0.00 0.00 0.00
0.00 0.00 0.00 0.00 0.00 0.00 0.00 0.00 0.00 0.00 0.00 0.00 0.00 0.00 0.00 0.00 0.00 0.00 0.00 0.00 0.01 0.02 0.02 0.03 0.04 0.04 0.04 0.04 0.05 0.06 0.04 0.03 0.02 0.02 0.02 0.02 0.01 0.01 0.01 0.01 0.00 0.00 0.00 0.00
0.00 0.00 0.00 0.00 0.00 0.00 0.00 0.00 0.00 0.00 0.00 0.00 0.00 0.00 0.00 0.00 0.00 0.00 0.00 0.00 0.00 0.01 0.01 0.02 0.03 0.04 0.04 0.04 0.04 0.05 0.05 0.05 0.04 0.04 0.04 0.03 0.02 0.01 0.01 0.01 0.00 0.00 0.00 0.00
0.00 0.00 0.00 0.00 0.00 0.00 0.00 0.00 0.00 0.00 0.00 0.00 0.00 0.00 0.00 0.00 0.00 0.00 0.00 0.00 0.00 0.00 0.00 0.00 0.01 0.03 0.03 0.04 0.04 0.04 0.05 0.06 0.07 0.07 0.05 0.04 0.04 0.03 0.02 0.02 0.02 0.01 0.01 0.01
MSLP
1013.87 1014.21 1014.54 1014.87 1015.17 1015.43 1015.63 1015.75 1015.79 1015.74 1015.60 1015.40 1015.14 1014.85 1014.54 1014.21 1013.86 1013.50 1013.10 1012.68 1012.22 1011.74 1011.24 1010.74 1010.26 1009.82 1009.43 1009.09 1008.80 1008.57 1008.38 1008.22 1008.09 1008.00 1007.93 1007.89 1007.89 1007.92 1007.97 1008.04 1008.11 1008.16 1008.18 1008.15
1014.46 1014.84 1015.17 1015.44 1015.64 1015.78 1015.84 1015.85 1015.79 1015.69 1015.55 1015.37 1015.16 1014.93 1014.65 1014.33 1013.96 1013.53 1013.03 1012.47 1011.87 1011.24 1010.62 1010.03 1009.48 1009.00 1008.59 1008.26 1007.98 1007.75 1007.55 1007.38 1007.22 1007.08 1006.97 1006.89 1006.86 1006.87 1006.92 1007.00 1007.09 1007.18 1007.25 1007.28
1015.01 1015.41 1015.72 1015.93 1016.05 1016.08 1016.04 1015.95 1015.82 1015.66 1015.50 1015.32 1015.13 1014.91 1014.64 1014.31 1013.88 1013.38 1012.78 1012.11 1011.39 1010.66 1009.94 1009.28 1008.70 1008.21 1007.80 1007.48 1007.21 1006.99 1006.78 1006.58 1006.39 1006.20 1006.04 1005.91 1005.84 1005.82 1005.86 1005.94 1006.06 1006.18 1006.28 1006.36
1015.51 1015.89 1016.15 1016.31 1016.35 1016.30 1016.18 1016.00 1015.81 1015.60 1015.40 1015.21 1015.00 1014.76 1014.47 1014.09 1013.62 1013.04 1012.36 1011.61 1010.81 1010.01 1009.26 1008.57 1007.97 1007.49 1007.09 1006.79 1006.53 1006.31 1006.08 1005.86 1005.62 1005.39 1005.17 1005.00 1004.88 1004.84 1004.86 1004.95 1005.07 1005.22 1005.35 1005.45
1015.93 1016.24 1016.44 1016.53 1016.51 1016.39 1016.20 1015.97 1015.71 1015.46 1015.22 1014.99 1014.75 1014.48 1014.14 1013.72 1013.20 1012.57 1011.84 1011.04 1010.21 1009.39 1008.62 1007.93 1007.35 1006.87 1006.50 1006.20 1005.94 1005.71 1005.46 1005.20 1004.92 1004.63 1004.37 1004.15 1004.00 1003.93 1003.95 1004.03 1004.17 1004.32 1004.46 1004.57
1016.23 1016.44 1016.56 1016.59 1016.51 1016.34 1016.10 1015.82 1015.53 1015.24 1014.96 1014.68 1014.40 1014.09 1013.72 1013.26 1012.70 1012.04 1011.30 1010.49 1009.65 1008.83 1008.08 1007.41 1006.84 1006.38 1006.01 1005.71 1005.43 1005.17 1004.88 1004.57 1004.24 1003.91 1003.61 1003.36 1003.18 1003.10 1003.10 1003.18 1003.32 1003.47 1003.61 1003.71
1016.36 1016.47 1016.51 1016.48 1016.35 1016.14 1015.88 1015.58 1015.26 1014.94 1014.63 1014.32 1014.01 1013.66 1013.25 1012.77 1012.19 1011.53 1010.79 1009.99 1009.18 1008.39 1007.66 1007.01 1006.45 1005.99 1005.61 1005.28 1004.96 1004.65 1004.31 1003.94 1003.56 1003.19 1002.84 1002.57 1002.37 1002.28 1002.28 1002.35 1002.49 1002.63 1002.76 1002.84
1016.30 1016.32 1016.30 1016.21 1016.06 1015.84 1015.57 1015.26 1014.94 1014.61 1014.28 1013.95 1013.60 1013.23 1012.80 1012.31 1011.73 1011.08 1010.36 1009.59 1008.81 1008.06 1007.35 1006.71 1006.15 1005.67 1005.25 1004.86 1004.49 1004.10 1003.69 1003.27 1002.83 1002.41 1002.04 1001.74 1001.53 1001.43 1001.43 1001.51 1001.63 1001.78 1001.89 1001.96
1016.05 1016.00 1015.93 1015.82 1015.66 1015.45 1015.20 1014.91 1014.59 1014.27 1013.93 1013.59 1013.23 1012.84 1012.40 1011.90 1011.33 1010.70 1010.01 1009.28 1008.53 1007.81 1007.11 1006.47 1005.90 1005.37 1004.89 1004.43 1003.97 1003.51 1003.02 1002.53 1002.04 1001.58 1001.18 1000.86 1000.65 1000.55 1000.54 1000.62 1000.75 1000.89 1001.01 1001.07
1015.62 1015.54 1015.45 1015.35 1015.21 1015.03 1014.81 1014.55 1014.26 1013.95 1013.62 1013.27 1012.90 1012.50 1012.05 1011.55 1011.00 1010.38 1009.72 1009.02 1008.30 1007.59 1006.90 1006.25 1005.63 1005.05 1004.50 1003.96 1003.42 1002.87 1002.30 1001.75 1001.21 1000.71 1000.29 999.97 999.75 999.65 999.65 999.73 999.86 1000.01 1000.13 1000.21
1015.06 1014.98 1014.91 1014.84 1014.74 1014.60 1014.43 1014.21 1013.96 1013.66 1013.34 1012.99 1012.61 1012.20 1011.74 1011.24 1010.69 1010.09 1009.44 1008.77 1008.07 1007.36 1006.67 1005.99 1005.33 1004.70 1004.07 1003.45 1002.83 1002.21 1001.58 1000.97 1000.40 999.88 999.44 999.11 998.90 998.80 998.81 998.90 999.04 999.20 999.35 999.45
1014.43 1014.39 1014.36 1014.34 1014.30 1014.22 1014.10 1013.93 1013.70 1013.43 1013.11 1012.76 1012.36 1011.93 1011.46 1010.95 1010.39 1009.80 1009.16 1008.50 1007.81 1007.11 1006.40 1005.70 1005.00 1004.32 1003.63 1002.95 1002.27 1001.59 1000.92 1000.28 999.68 999.16 998.72 998.40 998.20 998.11 998.13 998.23 998.39 998.57 998.74 998.88
1013.82 1013.83 1013.86 1013.90 1013.92 1013.90 1013.83 1013.70 1013.50 1013.24 1012.93 1012.56 1012.15 1011.69 1011.20 1010.67 1010.11 1009.51 1008.87 1008.21 1007.52 1006.82 1006.11 1005.39 1004.67 1003.94 1003.22 1002.50 1001.78 1001.07 1000.39 999.74 999.15 998.63 998.21 997.91 997.72 997.64 997.68 997.80 997.97 998.17 998.38 998.56
1013.28 1013.34 1013.43 1013.53 1013.61 1013.65 1013.62 1013.53 1013.35 1013.10 1012.78 1012.40 1011.97 1011.49 1010.97 1010.43 1009.84 1009.23 1008.59 1007.93 1007.24 1006.54 1005.82 1005.09 1004.35 1003.61 1002.87 1002.14 1001.41 1000.70 1000.03 999.39 998.82 998.34 997.95 997.67 997.50 997.45 997.51 997.64 997.83 998.06 998.29 998.51
1012.84 1012.96 1013.10 1013.25 1013.38 1013.46 1013.47 1013.40 1013.25 1013.00 1012.68 1012.29 1011.83 1011.33 1010.80 1010.23 1009.63 1009.00 1008.36 1007.69 1007.00 1006.29 1005.57 1004.84 1004.10 1003.35 1002.62 1001.88 1001.17 1000.48 999.83 999.23 998.70 998.26 997.91 997.67 997.54 997.52 997.60 997.75 997.96 998.21 998.47 998.71
1012.50 1012.66 1012.85 1013.04 1013.21 1013.32 1013.36 1013.31 1013.16 1012.92 1012.60 1012.20 1011.74 1011.23 1010.68 1010.09 1009.48 1008.85 1008.19 1007.52 1006.82 1006.11 1005.38 1004.65 1003.91 1003.17 1002.43 1001.72 1001.02 1000.37 999.75 999.20 998.72 998.33 998.04 997.85 997.76 997.77 997.88 998.06 998.29 998.55 998.83 999.09
1012.24 1012.43 1012.65 1012.86 1013.05 1013.18 1013.23 1013.20 1013.07 1012.84 1012.53 1012.13 1011.68 1011.17 1010.62 1010.03 1009.42 1008.78 1008.11 1007.43 1006.72 1006.00 1005.26 1004.52 1003.77 1003.03 1002.30 1001.59 1000.92 1000.29 999.72 999.22 998.80 998.46 998.22 998.09 998.05 998.10 998.24 998.45 998.70 998.98 999.27 999.54
1012.02 1012.23 1012.46 1012.68 1012.88 1013.01 1013.08 1013.05 1012.93 1012.73 1012.43 1012.06 1011.62 1011.13 1010.60 1010.02 1009.42 1008.78 1008.11 1007.41 1006.69 1005.95 1005.19 1004.43 1003.66 1002.90 1002.17 1001.46 1000.80 1000.20 999.66 999.20 998.83 998.55 998.37 998.29 998.30 998.40 998.58 998.82 999.09 999.39 999.69 999.96
1011.81 1012.02 1012.25 1012.47 1012.65 1012.79 1012.85 1012.83 1012.74 1012.55 1012.29 1011.95 1011.55 1011.10 1010.60 1010.05 1009.46 1008.83 1008.16 1007.45 1006.71 1005.94 1005.15 1004.35 1003.55 1002.76 1002.01 1001.29 1000.63 1000.03 999.52 999.09 998.76 998.53 998.40 998.37 998.44 998.59 998.80 999.07 999.37 999.69 999.99 1000.28
1011.58 1011.79 1012.01 1012.21 1012.38 1012.50 1012.56 1012.55 1012.47 1012.31 1012.09 1011.80 1011.45 1011.04 1010.58 1010.07 1009.50 1008.89 1008.22 1007.50 1006.74 1005.94 1005.11 1004.27 1003.43 1002.61 1001.82 1001.08 1000.40 999.80 999.30 998.89 998.59 998.40 998.31 998.33 998.44 998.64 998.89 999.19 999.52 999.85 1000.16 1000.45
1011.32 1011.53 1011.74 1011.92 1012.07 1012.17 1012.22 1012.21 1012.15 1012.02 1011.84 1011.60 1011.31 1010.96 1010.55 1010.08 1009.55 1008.95 1008.29 1007.57 1006.78 1005.96 1005.09 1004.21 1003.33 1002.46 1001.64 1000.87 1000.17 999.57 999.06 998.67 998.38 998.22 998.17 998.22 998.36 998.59 998.87 999.20 999.54 999.88 1000.20 1000.49
1011.07 1011.27 1011.46 1011.62 1011.74 1011.83 1011.87 1011.87 1011.82 1011.72 1011.58 1011.40 1011.16 1010.86 1010.51 1010.08 1009.59 1009.02 1008.37 1007.64 1006.85 1006.00 1005.11 1004.20 1003.28 1002.39 1001.53 1000.74 1000.03 999.41 998.91 998.52 998.24 998.09 998.06 998.13 998.29 998.53 998.83 999.16 999.51 999.85 1000.17 1000.45
1010.81 1011.02 1011.20 1011.34 1011.45 1011.52 1011.55 1011.55 1011.52 1011.46 1011.36 1011.22 1011.03 1010.79 1010.48 1010.10 1009.65 1009.10 1008.47 1007.76 1006.97 1006.11 1005.21 1004.29 1003.36 1002.45 1001.58 1000.78 1000.06 999.44 998.94 998.55 998.28 998.13 998.09 998.16 998.32 998.56 998.84 999.16 999.50 999.83 1000.14 1000.41
1010.57 1010.78 1010.95 1011.09 1011.19 1011.26 1011.30 1011.31 1011.30 1011.27 1011.21 1011.11 1010.97 1010.78 1010.52 1010.18 1009.76 1009.24 1008.64 1007.94 1007.16 1006.32 1005.43 1004.51 1003.59 1002.69 1001.84 1001.05 1000.34 999.73 999.23 998.84 998.57 998.41 998.36 998.41 998.55 998.75 999.00 999.28 999.58 999.88 1000.16 1000.41
1010.30 1010.53 1010.72 1010.87 1010.98 1011.06 1011.12 1011.16 1011.17 1011.18 1011.15 1011.10 1011.00 1010.85 1010.63 1010.33 1009.94 1009.46 1008.88 1008.21 1007.46 1006.65 1005.79 1004.90 1004.02 1003.15 1002.33 1001.57 1000.89 1000.30 999.81 999.43 999.15 998.98 998.90 998.92 999.00 999.15 999.34 999.57 999.81 1000.06 1000.29 1000.51
1009.96 1010.23 1010.45 1010.63 1010.78 1010.89 1010.99 1011.06 1011.13 1011.17 1011.19 1011.18 1011.13 1011.02 1010.83 1010.57 1010.21 1009.76 1009.21 1008.58 1007.87 1007.10 1006.28 1005.45 1004.62 1003.81 1003.04 1002.33 1001.69 1001.14 1000.67 1000.30 1000.01 999.82 999.70 999.66 999.68 999.76 999.88 1000.03 1000.20 1000.37 1000.55 1000.73
1009.51 1009.82 1010.09 1010.33 1010.53 1010.70 1010.85 1010.99 1011.11 1011.21 1011.29 1011.33 1011.32 1011.24 1011.09 1010.86 1010.54 1010.12 1009.61 1009.02 1008.35 1007.64 1006.88 1006.11 1005.35 1004.61 1003.91 1003.26 1002.68 1002.17 1001.73 1001.37 1001.08 1000.86 1000.70 1000.60 1000.55 1000.55 1000.58 1000.65 1000.73 1000.84 1000.96 1001.08
Thickness
5727 5730 5727 5718 5716 5713 5701 5693 5676 5673 5666 5661 5660 5657 5652 5647 5642 5636 5630 5624 5617 5609 5603 5596 5591 5586 5581 5577 5573 5569 5565 5560 5558 5556 5553 5551 5549 5549 5549 5549 5552 5554 5557 5561
5718 5727 5721 5711 5710 5707 5699 5691 5682 5672 5660 5661 5658 5652 5645 5638 5633 5625 5618 5612 5605 5598 5591 5585 5580 5577 5573 5570 5568 5564 5560 5558 5556 5553 5550 5547 5546 5544 5543 5542 5543 5544 5546 5549
5704 5716 5714 5690 5696 5694 5687 5680 5671 5655 5652 5653 5647 5642 5635 5628 5620 5611 5605 5599 5593 5587 5581 5576 5573 5570 5567 5566 5563 5559 5556 5554 5551 5549 5546 5544 5543 5541 5539 5538 5538 5538 5539 5541
5697 5697 5684 5690 5703 5695 5681 5669 5664 5657 5651 5645 5638 5634 5630 5621 5610 5602 5596 5591 5585 5579 5575 5571 5568 5564 5561 5558 5554 5551 5548 5546 5544 5541 5539 5538 5536 5535 5534 5533 5533 5534 5535 5536
5685 5681 5684 5690 5693 5687 5674 5661 5659 5651 5644 5640 5634 5626 5620 5614 5604 5594 5587 5581 5576 5571 5567 5562 5557 5553 5548 5544 5540 5536 5534 5532 5531 5530 5529 5528 5527 5527 5527 5527 5527 5529 5531 5532
5684 5678 5670 5676 5690 5692 5675 5652 5653 5645 5636 5629 5620 5602 5601 5603 5594 5586 5580 5573 5567 5561 5554 5548 5543 5537 5531 5528 5524 5521 5520 5518 5517 5516 5516 5517 5518 5519 5520 5520 5522 5524 5526 5528
5678 5672 5673 5681 5687 5678 5647 5640 5645 5639 5629 5620 5607 5598 5598 5595 5588 5579 5572 5564 5557 5549 5542 5535 5530 5524 5518 5513 5510 5508 5506 5504 5503 5502 5502 5504 5506 5509 5511 5513 5515 5518 5521 5524
5671 5661 5662 5682 5675 5657 5645 5646 5640 5633 5625 5616 5608 5602 5595 5587 5578 5570 5562 5555 5548 5540 5532 5526 5519 5511 5506 5501 5498 5495 5492 5490 5489 5489 5490 5494 5495 5498 5501 5504 5507 5511 5514 5518
5675 5669 5675 5677 5668 5661 5651 5643 5637 5629 5622 5614 5606 5597 5589 5579 5570 5562 5554 5547 5539 5531 5525 5518 5510 5502 5497 5495 5490 5486 5483 5480 5479 5479 5480 5481 5484 5488 5492 5496 5500 5505 5508 5512
5680 5678 5676 5670 5667 5661 5654 5646 5639 5631 5621 5612 5601 5592 5582 5572 5564 5556 5549 5541 5534 5526 5519 5513 5506 5499 5492 5489 5484 5479 5476 5474 5473 5472 5473 5474 5476 5480 5484 5490 5494 5499 5504 5508
5677 5678 5674 5669 5664 5659 5653 5645 5637 5628 5619 5608 5597 5586 5576 5567 5559 5552 5546 5538 5530 5522 5515 5509 5503 5497 5491 5486 5481 5477 5474 5472 5471 5469 5469 5470 5472 5476 5481 5486 5491 5496 5501 5506
5669 5671 5664 5660 5662 5658 5649 5640 5632 5622 5613 5603 5592 5581 5572 5563 5556 5550 5544 5537 5529 5521 5513 5507 5502 5496 5491 5486 5481 5477 5474 5472 5471 5469 5469 5469 5471 5475 5480 5485 5491 5495 5501 5505
5681 5678 5669 5667 5661 5655 5646 5638 5629 5619 5609 5598 5589 5579 5570 5561 5555 5549 5543 5536 5528 5520 5514 5508 5502 5497 5493 5487 5482 5478 5475 5474 5472 5471 5471 5472 5473 5476 5479 5484 5489 5493 5498 5502
5687 5680 5670 5664 5656 5651 5644 5636 5626 5616 5606 5596 5586 5577 5568 5561 5555 5549 5543 5536 5529 5522 5516 5510 5505 5500 5496 5490 5486 5482 5479 5478 5476 5475 5475 5476 5478 5480 5482 5485 5487 5489 5493 5498
5683 5677 5667 5663 5656 5648 5641 5632 5622 5611 5603 5594 5584 5575 5568 5560 5555 5550 5545 5539 5533 5526 5521 5515 5509 5505 5500 5495 5491 5487 5484 5482 5481 5480 5481 5482 5483 5485 5486 5488 5490 5490 5491 5493
5679 5673 5667 5659 5651 5643 5636 5627 5617 5608 5600 5591 5581 5574 5567 5560 5555 5551 5547 5542 5536 5531 5526 5520 5514 5510 5505 5501 5497 5494 5491 5493 5492 5488 5487 5488 5490 5491 5492 5493 5494 5494 5494 5495
5673 5666 5661 5653 5647 5640 5631 5623 5614 5606 5597 5588 5580 5573 5566 5561 5557 5553 5550 5545 5540 5535 5531 5525 5520 5516 5512 5508 5504 5501 5499 5498 5499 5495 5494 5495 5496 5497 5498 5499 5499 5499 5499 5500
5674 5666 5659 5652 5642 5635 5628 5621 5613 5605 5596 5588 5580 5573 5566 5561 5557 5554 5551 5548 5546 5543 5538 5532 5528 5524 5521 5518 5514 5510 5508 5506 5504 5503 5502 5501 5503 5504 5505 5505 5505 5505 5503 5503
5669 5662 5655 5649 5642 5633 5626 5618 5611 5603 5595 5587 5579 5571 5565 5560 5557 5554 5553 5550 5549 5547 5544 5540 5536 5534 5532 5529 5525 5521 5518 5516 5513 5511 5510 5510 5509 5510 5511 5511 5511 5510 5509 5509
5665 5658 5652 5645 5639 5632 5624 5617 5610 5602 5594 5587 5579 5571 5565 5561 5558 5556 5554 5552 5550 5547 5545 5545 5545 5544 5542 5539 5536 5532 5529 5527 5525 5522 5520 5518 5517 5517 5518 5518 5518 5517 5516 5517
5659 5653 5647 5641 5635 5630 5623 5616 5608 5600 5593 5586 5578 5571 5565 5561 5558 5555 5555 5555 5554 5552 5551 5552 5553 5552 5551 5548 5547 5545 5543 5539 5536 5534 5532 5529 5528 5527 5526 5525 5525 5525 5525 5526
5654 5648 5643 5637 5631 5625 5619 5612 5605 5599 5592 5585 5578 5571 5565 5561 5558 5555 5554 5552 5554 5553 5555 5558 5558 5557 5558 5559 5559 5557 5554 5551 5548 5545 5543 5541 5539 5538 5536 5535 5535 5536 5536 5537
5649 5644 5639 5634 5628 5622 5616 5609 5603 5596 5589 5582 5576 5569 5563 5559 5555 5553 5554 5554 5554 5554 5557 5560 5560 5562 5565 5568 5567 5566 5564 5561 5559 5556 5553 5551 5549 5548 5547 5547 5547 5547 5548 5549
5643 5639 5635 5631 5624 5618 5610 5605 5599 5592 5586 5579 5573 5567 5562 5558 5555 5552 5550 5552 5553 5555 5559 5560 5562 5565 5570 5572 5573 5572 5571 5569 5567 5565 5563 5561 5559 5558 5557 5557 5557 5557 5558 5560
5638 5634 5631 5625 5618 5611 5606 5601 5595 5588 5581 5574 5569 5564 5560 5555 5551 5550 5550 5551 5552 5555 5559 5562 5563 5566 5570 5572 5573 5574 5574 5574 5573 5572 5571 5570 5568 5567 5566 5566 5566 5566 5567 5568
5631 5627 5624 5619 5613 5606 5601 5595 5588 5582 5576 5570 5565 5560 5556 5552 5549 5548 5547 5548 5549 5552 5555 5558 5561 5564 5566 5569 5571 5573 5575 5576 5577 5577 5577 5577 5576 5575 5574 5574 5574 5574 5575 5576
5626 5622 5616 5611 5605 5601 5596 5590 5584 5577 5571 5565 5559 5555 5552 5548 5545 5544 5543 5543 5545 5547 5550 5553 5556 5558 5561 5563 5566 5569 5571 5573 5575 5577 5579 5581 5581 5580 5580 5580 5580 5580 5580 5580